Regional Weather Roundup
Issued by NWS Cleveland, OH

Home | Current Version | Previous Version | Graphics & Text | Print | Product List | Glossary On
Versions: 1 2 3 4 5 6 7 8 9 10 11 12 13 14 15 16 17 18 19 20 21 22 23 24 25 26 27 28 29 30 31 32 33 34 35 36 37 38 39 40 41 42 43 44 45 46 47 48 49 50
409
ASUS41 KCLE 310210
RWRCLE
OHIO REGIONAL WEATHER ROUNDUP
NATIONAL WEATHER SERVICE CLEVELAND, OH
1000 PM EDT SAT JUL 30 2016

NOTE: "FAIR" INDICATES FEW OR NO CLOUDS BELOW 12,000 FEET WITH NO
SIGNIFICANT WEATHER AND/OR OBSTRUCTIONS TO VISIBILITY.

OHZ001>008-015>018-024>027-034-035-043-044-310300-
   NORTHWEST OHIO

CITY           SKY/WX    TMP DP  RH WIND       PRES   REMARKS
DEFIANCE       RAIN      73  66  78 CALM      29.97R
FINDLAY        PTCLDY    77  67  71 NE10      29.95R
TOLEDO EXPRESS LGT RAIN  73  71  93 NE3       29.96S
TOLEDO EXEC    PTCLDY    74  71  91 CALM      29.97R
LIMA           MOCLDY    74  71  91 CALM      29.96R
$$

OHZ009>014-019>023-028>033-038-089-310300-
   NORTHEAST OHIO

CITY           SKY/WX    TMP DP  RH WIND       PRES   REMARKS
CLE-HOPKINS    CLEAR     73  66  78 SE3       29.99R
CLE-LAKEFRONT  PTCLDY    74  66  76 SE3       29.96R
CUY CO. ARPT   MOCLDY    72  72 100 CALM      29.99R
LORAIN-ELYRIA  MOCLDY    71  68  90 SE5       29.98R
ASHTABULA      CLEAR     70  70 100 CALM      29.99R
AKRON-CANTON   CLOUDY    70  66  87 N3        29.99R
WOOSTER        FOG       67  66  97 CALM      29.99S VSB 1/4
MANSFIELD      PTCLDY    70  66  87 CALM      29.98R
YOUNGSTOWN     CLOUDY    70  68  93 CALM      29.98S
$$

OHZ042-051>053-060>062-070>072-077>081-310300-
  SOUTHWEST OHIO

CITY           SKY/WX    TMP DP  RH WIND       PRES   REMARKS
CINC-COVINGTON PTCLDY    77  71  82 SW3       29.96R
CINC-LUNKEN    CLEAR     75  71  87 CALM      29.95R
HAMILTON       CLEAR     73  67  81 CALM      29.96R
DAYTON         PTCLDY    76  68  76 CALM      29.97R
WRIGHT-PAT AFB CLEAR     78  69  74 NW5       29.95R
DAYTON GENERAL CLEAR     77  64  64 SW3       29.95R
WILMINGTON     PTCLDY    74  70  87 SW3       29.97R
$$

OHZ036-037-039>041-045>050-054>059-063>069-073>076-082>088-310300-
  CENTRAL AND SOUTHEAST OHIO

CITY           SKY/WX    TMP DP  RH WIND       PRES   REMARKS
COLUMBUS       MOCLDY    73  69  87 VRB5      29.95R
OSU AIRPORT    LGT RAIN  73  70  90 CALM      29.97R
BOLTON FIELD   MOCLDY    77  70  79 CALM      29.96R
RICKENBACK AFB MOCLDY    74  68  82 NE8       29.95R
NEWARK         HVY RAIN  71  70  96 VRB3      29.97R FOG
MARION         MOCLDY    74  70  87 CALM      29.97R
LANCASTER      CLEAR     70  68  93 CALM      29.97R
ZANESVILLE     CLOUDY    72  67  84 CALM      29.96R
NEW PHILLY     CLOUDY    74  69  85 CALM      29.98R
$$




USA.gov is the U.S. government's official web portal to all federal, state and local government web resources and services.